Regional Weather Roundup
Issued by NWS

Home | Current Version | Previous Version | Text Only | Print | Product List | Glossary On
Versions: 1 2 3 4 5 6 7 8 9 10 11 12 13 14 15 16 17 18 19 20 21 22 23 24 25 26 27 28 29 30 31 32 33 34 35 36 37 38 39 40 41 42 43 44 45 46 47 48 49 50
000
ASUS43 KDTX 170701
RWRMI
MICHIGAN HOURLY REGIONAL WEATHER ROUNDUP
NATIONAL WEATHER SERVICE DETROIT/PONTIAC MI
200 AM EST SUN DEC 17 2017

NOTE: "FAIR" INDICATES FEW OR NO CLOUDS BELOW 12,000 FEET WITH NO
SIGNIFICANT WEATHER AND/OR OBSTRUCTION TO VISIBILITY.

MIZ047>049-052>055-059>063-066>070-074>076-081>083-170800-
SOUTHEAST LOWER MICHIGAN

CITY           SKY/WX    TMP DP  RH WIND       PRES   REMARKS
ADRIAN         CLOUDY    25  22  88 E8        30.14F WCI  16
ANN ARBOR      MOCLDY    22  17  81 NE9       30.16S WCI  12
BAD AXE        CLOUDY    23  19  86 CALM      30.23R
CARO           CLOUDY    24  20  85 NE3       30.22R
DETROIT CITY   CLOUDY    24  19  81 NE6       30.19S WCI  17
DETROIT        MOCLDY    26  17  68 NE6       30.19R WCI  19
FLINT          CLOUDY    18  13  80 NE9       30.18S WCI   7
GROSSE ILE     PTCLDY    24  20  84 NE12G17   30.17R WCI  13
HILLSDALE      FOG       27  25  93 E9        30.09F VSB 3/4 WCI  17
HOWELL         PTCLDY    20  18  94 E3        30.16S

CITY           SKY/WX    TMP DP  RH WIND       PRES   REMARKS
JACKSON        CLOUDY    26  21  81 E10       30.13S HAZE    WCI  16
LAMBERTVILLE   CLOUDY    27  24  89 E6        30.15F WCI  20
LANSING        CLOUDY    19  18  95 E5        30.17S WCI  12
LAPEER         CLOUDY    23  17  78 E3        30.20S
MASON          CLOUDY    22  18  86 NE5       30.15R WCI  16
MT. CLEMENS    CLOUDY    23  17  79 NE10      30.17F WCI  12
PONTIAC        CLOUDY    21  14  74 E8        30.14F WCI  11
PORT HOPE        N/A     26  19  74 E6        30.23R WCI  19
PORT HURON     CLOUDY    16  10  79 E3        30.23R
TRI CITIES     CLOUDY    23  20  88 NE7       30.23R WCI  15
MIDLAND        CLOUDY    22  17  83 CALM      30.23R
TROY           CLOUDY    24  17  74 NE6       30.20F WCI  17
SAGINAW HB     CLOUDY    23  21  93 NE6       30.23R WCI  16
$$
MIZ043>046-050>051-056>058-064>065-071>073-077>080-170800-
SOUTHWEST LOWER MICHIGAN

CITY           SKY/WX    TMP DP  RH WIND       PRES   REMARKS
BATTLE CREEK   CLOUDY    25  21  85 E7        30.10F WCI  17
BENTON HARBOR  CLOUDY    29  23  78 E7        30.07F WCI  22
BIG RAPIDS     CLOUDY    21  19  90 E7        30.17S WCI  12
COLDWATER      CLOUDY    25  24  94 E7        30.10F WCI  17
HOLLAND        CLOUDY    23  18  81 E9        30.12F WCI  13
GRAND RAPIDS   PTCLDY    22  19  89 E12       30.14F WCI  10
IONIA          FAIR      22  20  93 NE9       30.15F WCI  11
KALAMAZOO      CLOUDY    26  22  84 E5        30.10F FOG     WCI  20
LUDINGTON      CLOUDY    25  20  83 E10       30.16S WCI  14
MARSHALL       CLOUDY    23  22  95 E6        30.10F WCI  16
MOUNT PLEASANT CLOUDY    22  17  81 NE5       30.21R WCI  16
MUSKEGON       PTCLDY    24  18  77 E12       30.14F WCI  13
SOUTH HAVEN    PTCLDY    27  23  84 E6        30.09F WCI  20
$$
MIZ016>042-170800-
NORTHERN LOWER MICHIGAN

CITY           SKY/WX    TMP DP  RH WIND       PRES   REMARKS
ALPENA         CLOUDY    15  12  88 N3        30.26R
BEAVER ISLAND  CLOUDY    18  14  82 E7        30.25R WCI   9
BELLAIRE       CLOUDY    16  13  88 N3        30.25R
CADILLAC       CLOUDY    17  16  95 E7        30.16S WCI   8
CHARLEVOIX     CLOUDY    15  11  85 E7        30.27S WCI   5
FRANKFORT      CLOUDY    23  17  76 CALM      30.20S
GAYLORD        CLOUDY    11   8  88 NE3       30.20R
GRAYLING       CLOUDY    13   9  85 E5        30.20F WCI   5
HARBOR SPRINGS CLOUDY     9   6  87 NE6       30.25R WCI  -1
HOUGHTON LAKE  CLOUDY    14  11  87 E6        30.20S WCI   5
MANISTEE       CLOUDY    24  20  84 E10       30.17F WCI  14
OSCODA         CLOUDY    17  12  80 NW3       30.24S
PELLSTON       CLOUDY     1  -3  83 CALM      30.27R
ROGERS CITY    CLOUDY    15  11  86 CALM      30.27S
TRAVERSE CITY  CLOUDY    19  13  77 E5        30.22S WCI  12
$$
MIZ007>008-015-170800-
EASTERN UPPER MICHIGAN

CITY           SKY/WX    TMP DP  RH WIND       PRES   REMARKS
KINROSS        CLOUDY     0  -6  76 E13       30.28R WCI -18
MACKINAC ISLAN CLOUDY    13  10  87 NE9       30.26R WCI   1
NEWBERRY       CLOUDY    -1  -4  83 E5        30.25S WCI -11
S. S. MARIE    CLOUDY     0  -7  72 E5        30.30R WCI -10
MUNISING         N/A     11   8  88 SW5       30.26S WCI   3
$$
MIZ004>006-011>014-085-170800-
CENTRAL UPPER MICHIGAN

CITY           SKY/WX    TMP DP  RH WIND       PRES   REMARKS
MANISTIQUE     CLOUDY    10   3  74 NE5       30.25S WCI   2
ESCANABA       CLOUDY    16  12  84 NE8       30.23F WCI   5
MENOMINEE      CLOUDY    28  23  81 E10       30.19F WCI  19
$$
MIZ001>003-009>011-084-170800-
WESTERN UPPER MICHIGAN

CITY           SKY/WX    TMP DP  RH WIND       PRES   REMARKS
IRON MOUNTAIN  CLOUDY    16  12  84 NE3       30.18S
HOUGHTON       CLOUDY    20  13  74 SE7       30.15F WCI  11
COPPER HARBOR    N/A     24  17  74 SW6       30.19F WCI  17
IRONWOOD       CLOUDY    21  18  88 VRB3      30.12F
$$

ABBREVIATIONS USED IN REMARKS
   TC - TEMPERATURE IN CELSIUS
  WCI - WIND CHILL INDEX
   HX - HEAT INDEX
  VSB - VISIBILITY





USA.gov is the U.S. government's official web portal to all federal, state and local government web resources and services.